Date,TemperatureHighF,TemperatureAvgF,TemperatureLowF,DewpointHighF,DewpointAvgF,DewpointLowF,HumidityHigh,HumidityAvg,HumidityLow,PressureMaxIn,PressureMinIn,WindSpeedMaxMPH,WindSpeedAvgMPH,GustSpeedMaxMPH,PrecipitationSumIn
2012-11-1,78.1,66.3,57.7,65.9,61.2,55.7,98,85,55,30.05,29.96,10,0,10,0.00
2012-11-2,74.3,67.0,55.2,61.7,56.7,53.1,99,73,48,30.11,30.03,6,0,6,0.00
2012-11-3,81.4,73.9,56.0,69.3,61.7,39.9,98,68,54,30.15,30.05,7,0,7,0.00
2012-11-4,81.9,74.2,64.5,68.2,61.5,50.2,99,69,42,30.13,30.00,9,1,9,0.00
2012-11-5,80.0,70.1,63.8,69.0,61.8,43.6,99,77,46,30.02,29.92,9,1,9,0.00
2012-11-6,76.3,65.4,57.3,66.7,60.8,54.6,98,86,59,29.95,29.83,15,1,15,0.00
2012-11-7,66.9,59.1,54.7,57.0,52.0,48.6,94,78,58,30.04,29.87,16,2,16,0.00
2012-11-8,55.0,49.3,48.2,50.4,44.9,43.2,86,85,81,30.19,30.01,3,0,5,0.00
2012-11-9,72.8,57.6,48.2,58.2,45.9,43.9,85,68,38,30.28,30.17,8,1,8,0.00
2012-11-10,77.0,63.0,50.8,56.8,52.1,46.2,89,70,45,30.33,30.22,13,2,13,0.00
2012-11-11,80.7,66.8,55.7,65.0,59.2,53.7,95,78,51,30.30,30.21,15,2,15,0.00
2012-11-12,82.4,70.4,61.4,69.4,63.9,60.2,97,81,56,30.25,30.14,12,1,12,0.00
2012-11-13,79.6,70.3,63.5,68.4,64.5,61.2,97,83,54,30.19,30.09,7,0,7,0.00
2012-11-14,74.2,67.5,62.6,68.0,64.8,61.7,98,91,76,30.20,30.10,13,1,13,0.00
2012-11-15,69.3,65.8,61.1,64.6,63.5,59.4,96,93,84,30.17,30.08,7,0,10,0.00
2012-11-16,67.1,62.0,57.8,59.8,57.6,56.0,95,86,74,30.19,30.10,12,1,12,0.00
2012-11-17,76.2,65.4,58.5,65.5,60.3,56.4,94,84,63,30.17,30.07,15,2,15,0.00
2012-11-18,71.5,63.4,55.8,62.2,58.7,53.8,93,85,67,30.21,30.12,14,2,14,0.00
2012-11-19,66.8,57.8,52.0,59.8,54.6,51.2,98,89,74,30.20,30.08,11,1,11,0.00
2012-11-20,74.2,63.7,56.9,62.4,57.8,54.5,97,82,60,30.11,29.98,11,1,11,0.00
2012-11-21,72.6,62.0,54.1,58.0,55.0,50.3,98,80,46,30.11,30.00,11,1,11,0.00
2012-11-22,72.0,58.4,48.3,53.3,45.5,38.1,97,66,33,30.20,30.09,13,1,17,0.01
2012-11-23,71.0,55.7,41.6,49.2,43.3,37.6,93,66,35,30.24,30.11,12,1,12,0.00
2012-11-24,72.1,58.2,47.5,62.3,51.4,46.7,97,80,46,30.12,30.02,12,1,12,0.00
2012-11-25,68.8,54.2,41.4,47.3,40.6,32.9,93,64,28,30.20,30.10,7,0,7,0.00
2012-11-26,77.6,59.6,43.2,59.2,50.0,39.8,91,72,46,30.24,30.12,9,1,9,0.00
2012-11-27,79.3,66.3,55.9,65.8,60.9,55.0,98,84,58,30.20,30.09,12,1,12,0.00
2012-11-28,74.4,64.2,57.8,63.8,59.5,54.5,98,86,65,30.28,30.12,13,1,13,0.00
2012-11-29,77.7,63.6,52.4,61.6,55.7,51.0,95,77,52,30.29,30.19,14,2,14,0.00
2012-11-30,78.4,65.4,55.7,60.1,56.2,53.4,95,74,49,30.27,30.16,11,2,11,0.00